DLH9846 KJFK-KIAD

Flight info

Callsign DLH9846
Flight time 0h 55m
Altitude 40000
Route RBV HYPER9
Aircraft A346/H-SDE2E3FGHIJ3J4J5M1RWXY/LB1D1

Departure

Time 2026-05-07 15:05
Airport John F. Kennedy International Airport (KJFK)

Arrival

Time 2026-05-07 16:01
Airport Washington Dulles International Airport (KIAD)
Time Latitude Longitude Altitude Speed Heading
2026-05-07 14:18 40.64284 -73.79198 33 ft 0 kts 105°
2026-05-07 14:47 40.64286 -73.79207 33 ft 4 kts 105°
2026-05-07 14:47 40.64293 -73.79242 30 ft 4 kts 105°
2026-05-07 14:48 40.64298 -73.79268 31 ft 4 kts 110°
2026-05-07 14:48 40.64310 -73.79292 30 ft 4 kts 142°
2026-05-07 14:48 40.64331 -73.79305 31 ft 4 kts 161°
2026-05-07 14:48 40.64333 -73.79307 31 ft 4 kts 168°
2026-05-07 14:49 40.64314 -73.79312 30 ft 4 kts 203°
2026-05-07 14:49 40.64293 -73.79331 32 ft 4 kts 220°
2026-05-07 14:49 40.64276 -73.79352 33 ft 4 kts 223°
2026-05-07 14:49 40.64256 -73.79377 33 ft 4 kts 225°
2026-05-07 14:50 40.64250 -73.79386 33 ft 0 kts 226°
2026-05-07 14:58 40.64237 -73.79407 40 ft 7 kts 235°
2026-05-07 14:59 40.64203 -73.79491 33 ft 4 kts 248°
2026-05-07 14:59 40.64196 -73.79515 33 ft 11 kts 250°
2026-05-07 14:59 40.64150 -73.79596 33 ft 11 kts 195°
2026-05-07 14:59 40.64054 -73.79579 31 ft 18 kts 156°
2026-05-07 15:00 40.63959 -73.79455 31 ft 21 kts 123°
2026-05-07 15:00 40.63876 -73.79273 29 ft 25 kts 121°
2026-05-07 15:00 40.63782 -73.79064 31 ft 26 kts 121°
2026-05-07 15:00 40.63683 -73.78846 35 ft 27 kts 121°
2026-05-07 15:01 40.63581 -73.78621 35 ft 29 kts 121°
2026-05-07 15:01 40.63480 -73.78400 34 ft 28 kts 121°
2026-05-07 15:01 40.63393 -73.78208 34 ft 23 kts 121°
2026-05-07 15:01 40.63335 -73.78050 32 ft 10 kts 103°
2026-05-07 15:02 40.63259 -73.78007 35 ft 21 kts 186°
2026-05-07 15:02 40.63121 -73.78035 34 ft 21 kts 203°
2026-05-07 15:02 40.62983 -73.78138 32 ft 24 kts 211°
2026-05-07 15:02 40.62807 -73.78276 31 ft 30 kts 211°
2026-05-07 15:03 40.62660 -73.78391 34 ft 25 kts 210°
2026-05-07 15:03 40.62501 -73.78515 39 ft 27 kts 211°
2026-05-07 15:03 40.62348 -73.78635 38 ft 16 kts 210°
2026-05-07 15:03 40.62303 -73.78662 38 ft 6 kts 188°
2026-05-07 15:04 40.62289 -73.78661 38 ft 1 kts 172°
2026-05-07 15:04 40.62270 -73.78647 38 ft 6 kts 144°
2026-05-07 15:04 40.62232 -73.78581 36 ft 12 kts 105°
2026-05-07 15:04 40.62296 -73.78486 35 ft 26 kts 32°
2026-05-07 15:05 40.62654 -73.78206 36 ft 92 kts 31°
2026-05-07 15:05 40.63372 -73.77645 36 ft 148 kts 30°
2026-05-07 15:05 40.64382 -73.76821 289 ft 175 kts 28°
2026-05-07 15:05 40.65368 -73.75867 979 ft 182 kts 47°
2026-05-07 15:06 40.65799 -73.74286 1670 ft 194 kts 80°
2026-05-07 15:06 40.65852 -73.72486 2213 ft 204 kts 85°
2026-05-07 15:06 40.65720 -73.70549 2609 ft 225 kts 105°
2026-05-07 15:06 40.64844 -73.68815 3036 ft 245 kts 138°
2026-05-07 15:07 40.63313 -73.67802 3481 ft 263 kts 170°
2026-05-07 15:07 40.61454 -73.67871 4023 ft 273 kts 198°
2026-05-07 15:07 40.59648 -73.68710 4828 ft 276 kts 206°
2026-05-07 15:07 40.57929 -73.69735 5806 ft 269 kts 220°
2026-05-07 15:08 40.56710 -73.71531 6903 ft 251 kts 243°
2026-05-07 15:08 40.55857 -73.73510 8049 ft 244 kts 245°
2026-05-07 15:08 40.55036 -73.75475 9150 ft 240 kts 244°
2026-05-07 15:08 40.54216 -73.77379 10168 ft 238 kts 243°
2026-05-07 15:09 40.53365 -73.79302 10942 ft 247 kts 242°
2026-05-07 15:09 40.52456 -73.81320 11418 ft 265 kts 242°
2026-05-07 15:09 40.51488 -73.83441 11851 ft 283 kts 241°
2026-05-07 15:09 40.50431 -73.85731 12277 ft 301 kts 241°
2026-05-07 15:10 40.49308 -73.88150 12694 ft 318 kts 240°
2026-05-07 15:10 40.48133 -73.90664 13412 ft 325 kts 240°
2026-05-07 15:10 40.46945 -73.93199 14314 ft 325 kts 240°
2026-05-07 15:10 40.45755 -73.95729 15217 ft 326 kts 240°
2026-05-07 15:11 40.44560 -73.98267 16027 ft 328 kts 240°
2026-05-07 15:11 40.43355 -74.00825 16630 ft 328 kts 240°
2026-05-07 15:11 40.42152 -74.03378 16941 ft 329 kts 240°
2026-05-07 15:11 40.40933 -74.05960 16981 ft 329 kts 240°
2026-05-07 15:12 40.39712 -74.08546 17079 ft 336 kts 240°
2026-05-07 15:12 40.38488 -74.11135 17831 ft 337 kts 240°
2026-05-07 15:12 40.37259 -74.13731 18840 ft 333 kts 240°
2026-05-07 15:12 40.36019 -74.16348 19646 ft 334 kts 240°
2026-05-07 15:13 40.34803 -74.18913 20348 ft 335 kts 240°
2026-05-07 15:13 40.33577 -74.21498 21090 ft 336 kts 240°
2026-05-07 15:13 40.32308 -74.24171 21666 ft 337 kts 240°
2026-05-07 15:13 40.31040 -74.26839 21920 ft 337 kts 240°
2026-05-07 15:14 40.29806 -74.29432 21924 ft 336 kts 240°
2026-05-07 15:14 40.28566 -74.32034 21930 ft 335 kts 240°
2026-05-07 15:14 40.27323 -74.34643 21888 ft 335 kts 240°
2026-05-07 15:14 40.26078 -74.37252 21950 ft 336 kts 240°
2026-05-07 15:15 40.24825 -74.39871 21943 ft 336 kts 240°
2026-05-07 15:15 40.23578 -74.42481 21944 ft 336 kts 240°
2026-05-07 15:15 40.22370 -74.45114 21922 ft 337 kts 244°
2026-05-07 15:15 40.21547 -74.48001 21948 ft 340 kts 253°
2026-05-07 15:16 40.21156 -74.51082 21944 ft 343 kts 261°
2026-05-07 15:16 40.21206 -74.54273 21944 ft 350 kts 270°
2026-05-07 15:16 40.21626 -74.57397 21948 ft 352 kts 273°
2026-05-07 15:16 40.22100 -74.60584 21941 ft 351 kts 273°
2026-05-07 15:17 40.22572 -74.63684 21942 ft 350 kts 273°
2026-05-07 15:17 40.23056 -74.66813 21939 ft 350 kts 274°
2026-05-07 15:17 40.23545 -74.69944 21938 ft 350 kts 274°
2026-05-07 15:17 40.24040 -74.73093 21939 ft 350 kts 274°
2026-05-07 15:18 40.24532 -74.76212 21937 ft 350 kts 274°
2026-05-07 15:18 40.25027 -74.79352 21938 ft 350 kts 274°
2026-05-07 15:18 40.25360 -74.81463 21940 ft 351 kts 274°
2026-05-07 15:18 40.25841 -74.85602 21905 ft 338 kts 263°
2026-05-07 15:19 40.25477 -74.88617 21942 ft 332 kts 253°
2026-05-07 15:19 40.24876 -74.91615 21944 ft 335 kts 253°
2026-05-07 15:19 40.24292 -74.94582 21941 ft 336 kts 253°
2026-05-07 15:19 40.23704 -74.97559 21939 ft 336 kts 253°
2026-05-07 15:20 40.23119 -75.00501 21942 ft 337 kts 253°
2026-05-07 15:20 40.22520 -75.03506 21939 ft 336 kts 253°
2026-05-07 15:20 40.21927 -75.06461 21970 ft 336 kts 253°
2026-05-07 15:20 40.21328 -75.09434 21957 ft 336 kts 253°
2026-05-07 15:21 40.20732 -75.12390 21954 ft 335 kts 253°
2026-05-07 15:21 40.20135 -75.15343 21954 ft 335 kts 253°
2026-05-07 15:21 40.19539 -75.18284 21909 ft 331 kts 253°
2026-05-07 15:21 40.18950 -75.21184 21645 ft 331 kts 253°
2026-05-07 15:22 40.18556 -75.23117 21540 ft 333 kts 253°
2026-05-07 15:22 40.17958 -75.26059 21360 ft 334 kts 253°
2026-05-07 15:22 40.17358 -75.29001 21201 ft 334 kts 253°
2026-05-07 15:22 40.16757 -75.31942 21049 ft 334 kts 253°
2026-05-07 15:23 40.16157 -75.34877 20900 ft 333 kts 253°
2026-05-07 15:23 40.15556 -75.37806 20756 ft 333 kts 253°
2026-05-07 15:23 40.14947 -75.40775 20602 ft 333 kts 253°
2026-05-07 15:23 40.14343 -75.43707 20481 ft 333 kts 253°
2026-05-07 15:24 40.13733 -75.46664 20335 ft 334 kts 253°
2026-05-07 15:24 40.13124 -75.49616 20185 ft 334 kts 253°
2026-05-07 15:24 40.12519 -75.52551 20047 ft 334 kts 253°
2026-05-07 15:24 40.11912 -75.55490 19881 ft 334 kts 253°
2026-05-07 15:25 40.11304 -75.58426 19737 ft 334 kts 253°
2026-05-07 15:25 40.10704 -75.61322 19604 ft 334 kts 253°
2026-05-07 15:25 40.10094 -75.64266 19466 ft 335 kts 253°
2026-05-07 15:25 40.09481 -75.67208 19322 ft 335 kts 253°
2026-05-07 15:26 40.08869 -75.70150 19175 ft 335 kts 253°
2026-05-07 15:26 40.08258 -75.73081 19032 ft 335 kts 253°
2026-05-07 15:26 40.07646 -75.76017 18888 ft 334 kts 253°
2026-05-07 15:26 40.07033 -75.78950 18784 ft 334 kts 253°
2026-05-07 15:27 40.06413 -75.81895 18641 ft 337 kts 254°
2026-05-07 15:27 40.05793 -75.84851 18497 ft 338 kts 254°
2026-05-07 15:27 40.05161 -75.87866 18362 ft 338 kts 254°
2026-05-07 15:27 40.04535 -75.90853 18188 ft 338 kts 253°
2026-05-07 15:28 40.03921 -75.93799 18001 ft 334 kts 253°
2026-05-07 15:28 40.03305 -75.96722 17830 ft 333 kts 253°
2026-05-07 15:28 40.02681 -75.99673 17671 ft 332 kts 253°
2026-05-07 15:28 40.02071 -76.02556 17519 ft 332 kts 253°
2026-05-07 15:29 40.01453 -76.05470 17387 ft 332 kts 253°
2026-05-07 15:29 40.00836 -76.08379 17258 ft 332 kts 253°
2026-05-07 15:29 40.00219 -76.11282 17112 ft 332 kts 253°
2026-05-07 15:29 39.99604 -76.14176 16996 ft 331 kts 253°
2026-05-07 15:30 39.98986 -76.17074 16887 ft 332 kts 253°
2026-05-07 15:30 39.98366 -76.19983 16758 ft 332 kts 253°
2026-05-07 15:30 39.97746 -76.22892 16626 ft 332 kts 253°
2026-05-07 15:30 39.97126 -76.25797 16501 ft 332 kts 253°
2026-05-07 15:31 39.96505 -76.28698 16373 ft 332 kts 253°
2026-05-07 15:31 39.95884 -76.31601 16243 ft 331 kts 253°
2026-05-07 15:31 39.95264 -76.34490 16111 ft 331 kts 253°
2026-05-07 15:31 39.94642 -76.37384 15979 ft 331 kts 253°
2026-05-07 15:32 39.94020 -76.40279 15863 ft 331 kts 253°
2026-05-07 15:32 39.93398 -76.43164 15734 ft 331 kts 253°
2026-05-07 15:32 39.92773 -76.46056 15618 ft 330 kts 253°
2026-05-07 15:32 39.92150 -76.48941 15498 ft 330 kts 253°
2026-05-07 15:33 39.91527 -76.51817 15380 ft 330 kts 253°
2026-05-07 15:33 39.90901 -76.54706 15263 ft 331 kts 253°
2026-05-07 15:33 39.90275 -76.57590 15130 ft 331 kts 253°
2026-05-07 15:33 39.89647 -76.60484 15009 ft 331 kts 253°
2026-05-07 15:34 39.89020 -76.63364 14886 ft 331 kts 253°
2026-05-07 15:34 39.88390 -76.66253 14761 ft 330 kts 253°
2026-05-07 15:34 39.87762 -76.69136 14647 ft 330 kts 253°
2026-05-07 15:34 39.87134 -76.72014 14528 ft 329 kts 253°
2026-05-07 15:35 39.86507 -76.74893 14404 ft 329 kts 253°
2026-05-07 15:35 39.85881 -76.77759 14286 ft 329 kts 253°
2026-05-07 15:35 39.85263 -76.80576 14165 ft 328 kts 253°
2026-05-07 15:35 39.84633 -76.83443 14043 ft 328 kts 253°
2026-05-07 15:36 39.84001 -76.86323 14018 ft 328 kts 253°
2026-05-07 15:36 39.83344 -76.89175 14012 ft 328 kts 250°
2026-05-07 15:36 39.82509 -76.91944 13987 ft 328 kts 246°
2026-05-07 15:36 39.81495 -76.94609 13922 ft 328 kts 242°
2026-05-07 15:37 39.80327 -76.97187 13948 ft 329 kts 240°
2026-05-07 15:37 39.79140 -76.99739 13899 ft 329 kts 240°
2026-05-07 15:37 39.77940 -77.02306 13368 ft 329 kts 240°
2026-05-07 15:37 39.76751 -77.04833 12902 ft 325 kts 240°
2026-05-07 15:38 39.75575 -77.07327 12467 ft 321 kts 240°
2026-05-07 15:38 39.74415 -77.09785 12056 ft 317 kts 240°
2026-05-07 15:38 39.73268 -77.12212 11664 ft 312 kts 240°
2026-05-07 15:38 39.72157 -77.14561 11278 ft 309 kts 240°
2026-05-07 15:39 39.71036 -77.16932 10883 ft 306 kts 240°
2026-05-07 15:39 39.69925 -77.19276 10501 ft 304 kts 239°
2026-05-07 15:39 39.68582 -77.21405 10110 ft 307 kts 228°
2026-05-07 15:39 39.66844 -77.23095 9824 ft 320 kts 215°
2026-05-07 15:40 39.64844 -77.24285 9850 ft 307 kts 208°
2026-05-07 15:40 39.62907 -77.25283 9864 ft 291 kts 208°
2026-05-07 15:40 39.61073 -77.26210 9874 ft 275 kts 208°
2026-05-07 15:40 39.59359 -77.27075 9886 ft 263 kts 209°
2026-05-07 15:41 39.57658 -77.27942 9923 ft 262 kts 209°
2026-05-07 15:41 39.55961 -77.28811 9784 ft 263 kts 209°
2026-05-07 15:41 39.54258 -77.29681 9415 ft 262 kts 208°
2026-05-07 15:41 39.52564 -77.30542 9088 ft 260 kts 208°
2026-05-07 15:42 39.50886 -77.31393 8766 ft 257 kts 208°
2026-05-07 15:42 39.49220 -77.32236 8471 ft 256 kts 208°
2026-05-07 15:42 39.47566 -77.33071 8170 ft 254 kts 208°
2026-05-07 15:42 39.45916 -77.33909 7863 ft 253 kts 208°
2026-05-07 15:43 39.44269 -77.34741 7567 ft 253 kts 208°
2026-05-07 15:43 39.42626 -77.35569 7327 ft 251 kts 207°
2026-05-07 15:43 39.40931 -77.36172 7073 ft 257 kts 196°
2026-05-07 15:43 39.39084 -77.36367 6843 ft 273 kts 186°
2026-05-07 15:44 39.37171 -77.36339 6589 ft 274 kts 184°
2026-05-07 15:44 39.35272 -77.36271 6308 ft 273 kts 184°
2026-05-07 15:44 39.33374 -77.36209 6012 ft 271 kts 183°
2026-05-07 15:44 39.31487 -77.36153 5736 ft 270 kts 183°
2026-05-07 15:45 39.29634 -77.36104 5459 ft 270 kts 182°
2026-05-07 15:45 39.27748 -77.36057 5177 ft 269 kts 182°
2026-05-07 15:45 39.25873 -77.36013 4922 ft 269 kts 181°
2026-05-07 15:45 39.24008 -77.35967 4742 ft 266 kts 181°
2026-05-07 15:46 39.20329 -77.35873 4391 ft 263 kts 180°
2026-05-07 15:46 39.18475 -77.35827 4204 ft 262 kts 180°
2026-05-07 15:46 39.16655 -77.35779 4027 ft 261 kts 180°
2026-05-07 15:47 39.14796 -77.35757 3991 ft 273 kts 181°
2026-05-07 15:47 39.12888 -77.35753 4005 ft 275 kts 181°
2026-05-07 15:47 39.10968 -77.35750 4008 ft 275 kts 182°
2026-05-07 15:47 39.09056 -77.35742 4007 ft 275 kts 182°
2026-05-07 15:48 39.07164 -77.35740 4012 ft 275 kts 182°
2026-05-07 15:48 39.05241 -77.35738 4005 ft 276 kts 182°
2026-05-07 15:48 39.03319 -77.35734 4004 ft 276 kts 182°
2026-05-07 15:48 39.01405 -77.35731 4007 ft 275 kts 182°
2026-05-07 15:49 38.99487 -77.35728 4009 ft 276 kts 182°
2026-05-07 15:49 38.97566 -77.35723 3997 ft 275 kts 182°
2026-05-07 15:49 38.95646 -77.35717 3998 ft 276 kts 182°
2026-05-07 15:49 38.93728 -77.35713 3996 ft 276 kts 182°
2026-05-07 15:50 38.91806 -77.35707 3997 ft 276 kts 182°
2026-05-07 15:50 38.89883 -77.35710 3994 ft 276 kts 183°
2026-05-07 15:50 38.87966 -77.35748 3986 ft 276 kts 184°
2026-05-07 15:50 38.86044 -77.35794 3983 ft 276 kts 184°
2026-05-07 15:51 38.84124 -77.35839 3987 ft 276 kts 183°
2026-05-07 15:51 38.82201 -77.35882 3980 ft 275 kts 183°
2026-05-07 15:51 38.80274 -77.35921 3989 ft 275 kts 184°
2026-05-07 15:51 38.78369 -77.35963 3994 ft 269 kts 184°
2026-05-07 15:52 38.76544 -77.35999 3986 ft 255 kts 184°
2026-05-07 15:52 38.74811 -77.36034 3972 ft 241 kts 184°
2026-05-07 15:52 38.73172 -77.36069 3966 ft 234 kts 184°
2026-05-07 15:52 38.71548 -77.36101 4014 ft 233 kts 184°
2026-05-07 15:53 38.69925 -77.36138 4030 ft 233 kts 184°
2026-05-07 15:53 38.68291 -77.36177 4025 ft 233 kts 184°
2026-05-07 15:53 38.66693 -77.36459 3997 ft 229 kts 205°
2026-05-07 15:53 38.65384 -77.37509 4007 ft 224 kts 232°
2026-05-07 15:54 38.64547 -77.39147 4017 ft 218 kts 256°
2026-05-07 15:54 38.64306 -77.41016 4020 ft 211 kts 278°
2026-05-07 15:54 38.64644 -77.42811 4016 ft 206 kts 299°
2026-05-07 15:54 38.65479 -77.44290 4012 ft 203 kts 320°
2026-05-07 15:55 38.66664 -77.45248 4009 ft 203 kts 339°
2026-05-07 15:55 38.68052 -77.45581 3924 ft 207 kts 359°
2026-05-07 15:55 38.69470 -77.45219 3678 ft 210 kts 20°
2026-05-07 15:55 38.70800 -77.44466 3466 ft 207 kts 17°
2026-05-07 15:56 38.72177 -77.44088 3202 ft 200 kts
2026-05-07 15:56 38.73540 -77.44013 3022 ft 190 kts
2026-05-07 15:56 38.74804 -77.43962 2973 ft 173 kts
2026-05-07 15:56 38.75997 -77.43916 2991 ft 171 kts
2026-05-07 15:57 38.77199 -77.43878 3054 ft 173 kts
2026-05-07 15:57 38.78416 -77.43852 3078 ft 181 kts
2026-05-07 15:57 38.79686 -77.43830 2891 ft 182 kts
2026-05-07 15:57 38.80964 -77.43812 2639 ft 181 kts
2026-05-07 15:58 38.82219 -77.43795 2387 ft 176 kts
2026-05-07 15:58 38.83420 -77.43776 2114 ft 165 kts
2026-05-07 15:58 38.84525 -77.43761 1874 ft 153 kts
2026-05-07 15:58 38.85585 -77.43746 1700 ft 152 kts
2026-05-07 15:59 38.86646 -77.43728 1522 ft 151 kts
2026-05-07 15:59 38.87732 -77.43713 1304 ft 151 kts
2026-05-07 15:59 38.88784 -77.43696 1098 ft 151 kts 359°
2026-05-07 15:59 38.89824 -77.43683 844 ft 151 kts 360°
2026-05-07 16:00 38.90869 -77.43662 658 ft 150 kts 358°
2026-05-07 16:00 38.91907 -77.43649 429 ft 148 kts 359°
2026-05-07 16:00 38.92927 -77.43640 312 ft 137 kts 359°
2026-05-07 16:00 38.93709 -77.43626 309 ft 85 kts
2026-05-07 16:01 38.94144 -77.43620 310 ft 46 kts
2026-05-07 16:01 38.94414 -77.43658 311 ft 25 kts 339°
2026-05-07 16:01 38.94526 -77.43731 310 ft 22 kts 329°